| time (UTC) | temp F | wind direction | speed MPH | gust MPH | rain 1hr in | rain 24hr in | rain mn in | humidity % | barometer mb |
| 20260504082005 | 50 | 185 | 3.0 | 5.0 | 0.00 | 0.00 | 0.00 | 70 | 1000.6 |
| 20260504081507 | 50 | 189 | 3.0 | 5.0 | 0.00 | 0.00 | 0.00 | 69 | 1000.7 |
| 20260504081006 | 50 | 194 | 3.0 | 5.0 | 0.00 | 0.00 | 0.00 | 69 | 1000.7 |
| 20260504080503 | 50 | 192 | 3.0 | 6.0 | 0.00 | 0.00 | 0.00 | 69 | 1000.7 |
| 20260504050419 | 57 | 49 | 3.0 | 8.0 | 0.00 | 0.00 | 0.00 | 57 | 1002.4 |
| 20260504045922 | 58 | 44 | 2.0 | 8.0 | 0.00 | 0.00 | 0.00 | 56 | 1002.4 |
| 20260504045415 | 59 | 277 | 2.0 | 4.0 | 0.00 | 0.00 | 0.00 | 53 | 1002.2 |
| 20260504044915 | 59 | 225 | 2.0 | 3.0 | 0.00 | 0.00 | 0.00 | 53 | 1002.2 |
| 20260504044416 | 60 | 238 | 2.0 | 3.0 | 0.00 | 0.00 | 0.00 | 52 | 1002.1 |
| 20260504043919 | 60 | 246 | 2.0 | 4.0 | 0.00 | 0.00 | 0.00 | 52 | 1002.0 |
| 20260504043915 | 60 | 248 | 2.0 | 4.0 | 0.00 | 0.00 | 0.00 | 52 | 1002.1 |
| 20260504043146 | 60 | 224 | 2.0 | 4.0 | 0.00 | 0.00 | 0.00 | 51 | 1001.9 |
| 20260504042416 | 60 | 234 | 2.0 | 4.0 | 0.00 | 0.00 | 0.00 | 51 | 1001.9 |
| 20260504041912 | 60 | 226 | 2.0 | 4.0 | 0.00 | 0.00 | 0.00 | 51 | 1001.9 |
| 20260504041411 | 61 | 238 | 2.0 | 4.0 | 0.00 | 0.00 | 0.00 | 50 | 1001.9 |
| 20260504040910 | 61 | 215 | 2.0 | 4.0 | 0.00 | 0.00 | 0.00 | 50 | 1002.0 |
| 20260504040411 | 61 | 243 | 2.0 | 4.0 | 0.00 | 0.00 | 0.00 | 50 | 1002.0 |
| 20260504035911 | 62 | 246 | 2.0 | 6.0 | 0.00 | 0.00 | 0.00 | 50 | 1002.0 |
| 20260504035412 | 62 | 257 | 2.0 | 6.0 | 0.00 | 0.00 | 0.00 | 49 | 1002.0 |
| 20260504034912 | 62 | 256 | 2.0 | 8.0 | 0.00 | 0.00 | 0.00 | 48 | 1002.1 |
| 20260504034639 | 62 | 267 | 3.0 | 8.0 | 0.00 | 0.00 | 0.00 | 48 | 1002.0 |
| 20260504033908 | 62 | 266 | 3.0 | 8.0 | 0.00 | 0.00 | 0.00 | 48 | 1002.1 |
| 20260504033408 | 62 | 288 | 3.0 | 8.0 | 0.00 | 0.00 | 0.00 | 48 | 1002.1 |
| 20260504032906 | 63 | 271 | 3.0 | 9.0 | 0.00 | 0.00 | 0.00 | 48 | 1002.2 |
| 20260504032408 | 63 | 276 | 3.0 | 9.0 | 0.00 | 0.00 | 0.00 | 48 | 1002.2 |
| 20260504031902 | 63 | 291 | 3.0 | 9.0 | 0.00 | 0.00 | 0.00 | 48 | 1002.1 |
| 20260504031354 | 62 | 253 | 3.0 | 9.0 | 0.00 | 0.00 | 0.00 | 49 | 1002.2 |
| 20260504031120 | 62 | 285 | 3.0 | 12.0 | 0.00 | 0.00 | 0.00 | 49 | 1002.2 |
| 20260504030623 | 63 | 249 | 2.0 | 6.0 | 0.00 | 0.00 | 0.00 | 49 | 1002.1 |
| 20260504025850 | 63 | 212 | 3.0 | 6.0 | 0.00 | 0.00 | 0.00 | 50 | 1002.2 |
| 20260504025404 | 63 | 243 | 3.0 | 10.0 | 0.00 | 0.00 | 0.00 | 48 | 1002.1 |
| 20260504025349 | 63 | 239 | 3.0 | 7.0 | 0.00 | 0.00 | 0.00 | 50 | 1002.2 |
| 20260504024350 | 64 | 274 | 3.0 | 10.0 | 0.00 | 0.00 | 0.00 | 47 | 1002.1 |
| 20260504023845 | 64 | 274 | 3.0 | 7.0 | 0.00 | 0.00 | 0.00 | 48 | 1002.1 |
| 20260504023345 | 64 | 295 | 2.0 | 8.0 | 0.00 | 0.00 | 0.00 | 48 | 1002.1 |
| 20260504022846 | 64 | 266 | 2.0 | 8.0 | 0.00 | 0.00 | 0.00 | 48 | 1002.1 |
| 20260504022344 | 64 | 293 | 2.0 | 6.0 | 0.00 | 0.00 | 0.00 | 48 | 1002.1 |
| 20260504022116 | 64 | 271 | 3.0 | 6.0 | 0.00 | 0.00 | 0.00 | 47 | 1002.1 |
| 20260504021618 | 64 | 262 | 3.0 | 7.0 | 0.00 | 0.00 | 0.00 | 47 | 1002.0 |
| 20260504021113 | 64 | 275 | 3.0 | 8.0 | 0.00 | 0.00 | 0.00 | 47 | 1002.0 |
| 20260504020617 | 64 | 265 | 3.0 | 8.0 | 0.00 | 0.00 | 0.00 | 47 | 1002.0 |
| 20260504015840 | 64 | 262 | 2.0 | 6.0 | 0.00 | 0.00 | 0.00 | 47 | 1002.0 |
| 20260504015340 | 65 | 275 | 2.0 | 6.0 | 0.00 | 0.00 | 0.00 | 46 | 1001.9 |
| 20260504014841 | 65 | 267 | 2.0 | 7.0 | 0.00 | 0.00 | 0.00 | 46 | 1001.8 |
| 20260504014341 | 65 | 242 | 2.0 | 7.0 | 0.00 | 0.00 | 0.00 | 46 | 1001.8 |
| 20260504014112 | 65 | 267 | 2.0 | 7.0 | 0.00 | 0.00 | 0.00 | 46 | 1001.7 |
| 20260504013342 | 65 | 333 | 3.0 | 7.0 | 0.00 | 0.00 | 0.00 | 46 | 1001.7 |
| 20260504013108 | 66 | 291 | 2.0 | 7.0 | 0.00 | 0.00 | 0.00 | 45 | 1001.8 |
| 20260504012337 | 66 | 318 | 3.0 | 7.0 | 0.00 | 0.00 | 0.00 | 45 | 1001.7 |
| 20260504011837 | 66 | 296 | 3.0 | 7.0 | 0.00 | 0.00 | 0.00 | 44 | 1001.7 |
| 20260504011338 | 66 | 293 | 3.0 | 9.0 | 0.00 | 0.00 | 0.00 | 44 | 1001.7 |
| 20260504010837 | 67 | 287 | 3.0 | 9.0 | 0.00 | 0.00 | 0.00 | 44 | 1001.6 |
| 20260504010609 | 67 | 294 | 3.0 | 9.0 | 0.00 | 0.00 | 0.00 | 44 | 1001.5 |
| 20260504005834 | 67 | 287 | 3.0 | 8.0 | 0.00 | 0.00 | 0.00 | 44 | 1001.5 |
| 20260504005607 | 67 | 284 | 3.0 | 7.0 | 0.00 | 0.00 | 0.00 | 44 | 1001.5 |
| 20260504004837 | 67 | 290 | 3.0 | 7.0 | 0.00 | 0.00 | 0.00 | 43 | 1001.5 |
| 20260504004559 | 68 | 275 | 3.0 | 9.0 | 0.00 | 0.00 | 0.00 | 43 | 1001.4 |
| 20260504003832 | 68 | 302 | 4.0 | 10.0 | 0.00 | 0.00 | 0.00 | 43 | 1001.4 |
| 20260504003331 | 69 | 306 | 5.0 | 10.0 | 0.00 | 0.00 | 0.00 | 42 | 1001.4 |
| 20260504002825 | 69 | 271 | 5.0 | 12.0 | 0.00 | 0.00 | 0.00 | 41 | 1001.3 |
| 20260504002325 | 69 | 294 | 5.0 | 12.0 | 0.00 | 0.00 | 0.00 | 41 | 1001.3 |
| 20260504001817 | 69 | 246 | 4.0 | 10.0 | 0.00 | 0.00 | 0.00 | 41 | 1001.3 |
| 20260504001316 | 69 | 304 | 4.0 | 11.0 | 0.00 | 0.00 | 0.00 | 41 | 1001.2 |
| 20260504000815 | 69 | 279 | 4.0 | 11.0 | 0.00 | 0.00 | 0.00 | 43 | 1001.2 |
| 20260504000315 | 68 | 263 | 3.0 | 10.0 | 0.00 | 0.00 | 0.00 | 46 | 1001.2 |
| 20260503235815 | 67 | 277 | 3.0 | 8.0 | 0.00 | 0.00 | 0.00 | 50 | 1001.2 |
| 20260503235316 | 67 | 196 | 4.0 | 8.0 | 0.00 | 0.00 | 0.00 | 51 | 1001.1 |
| 20260503235042 | 67 | 209 | 3.0 | 8.0 | 0.00 | 0.00 | 0.00 | 51 | 1001.1 |
| 20260503234310 | 67 | 222 | 4.0 | 15.0 | 0.00 | 0.00 | 0.00 | 52 | 1001.2 |
| 20260503234039 | 67 | 227 | 7.0 | 15.0 | 0.00 | 0.00 | 0.00 | 52 | 1001.1 |
| 20260503233810 | 67 | 227 | 7.0 | 15.0 | 0.00 | 0.00 | 0.00 | 52 | 1001.1 |
| 20260503233308 | 67 | 181 | 9.0 | 15.0 | 0.00 | 0.00 | 0.00 | 52 | 1001.1 |
| 20260503232807 | 67 | 184 | 9.0 | 16.0 | 0.00 | 0.00 | 0.00 | 51 | 1001.1 |
| 20260503232309 | 67 | 190 | 7.0 | 16.0 | 0.00 | 0.00 | 0.00 | 51 | 1001.1 |
| 20260503231804 | 68 | 200 | 8.0 | 19.0 | 0.00 | 0.00 | 0.00 | 50 | 1001.1 |
| 20260503231303 | 68 | 205 | 8.0 | 20.0 | 0.00 | 0.00 | 0.00 | 50 | 1000.9 |
| 20260503231259 | 68 | 242 | 9.0 | 20.0 | 0.00 | 0.00 | 0.00 | 49 | 1001.1 |
| 20260503230300 | 68 | 206 | 7.0 | 18.0 | 0.00 | 0.00 | 0.00 | 50 | 1001.1 |
| 20260503225804 | 67 | 186 | 7.0 | 16.0 | 0.00 | 0.00 | 0.00 | 50 | 1001.1 |
| 20260503225300 | 68 | 202 | 7.0 | 17.0 | 0.00 | 0.00 | 0.00 | 49 | 1001.1 |
| 20260503224759 | 68 | 193 | 7.0 | 17.0 | 0.00 | 0.00 | 0.00 | 49 | 1001.1 |
| 20260503224255 | 68 | 193 | 7.0 | 20.0 | 0.00 | 0.00 | 0.00 | 49 | 1001.2 |
| 20260503223756 | 68 | 178 | 7.0 | 20.0 | 0.00 | 0.00 | 0.00 | 48 | 1001.1 |
| 20260503223256 | 68 | 216 | 7.0 | 16.0 | 0.00 | 0.00 | 0.00 | 48 | 1001.3 |
| 20260503222756 | 68 | 217 | 8.0 | 20.0 | 0.00 | 0.00 | 0.00 | 48 | 1001.3 |
| 20260503222257 | 68 | 217 | 7.0 | 20.0 | 0.00 | 0.00 | 0.00 | 49 | 1001.3 |
| 20260503221757 | 68 | 214 | 7.0 | 19.0 | 0.00 | 0.00 | 0.00 | 49 | 1001.3 |
| 20260503221251 | 68 | 200 | 8.0 | 19.0 | 0.00 | 0.00 | 0.00 | 48 | 1001.2 |
| 20260503220752 | 69 | 196 | 8.0 | 17.0 | 0.00 | 0.00 | 0.00 | 49 | 1001.3 |
| 20260503220301 | 69 | 219 | 8.0 | 20.0 | 0.00 | 0.00 | 0.00 | 48 | 1001.5 |
| 20260503220256 | 69 | 188 | 8.0 | 17.0 | 0.00 | 0.00 | 0.00 | 48 | 1001.4 |
| 20260503215252 | 69 | 223 | 7.0 | 20.0 | 0.00 | 0.00 | 0.00 | 47 | 1001.5 |
| 20260503214751 | 69 | 221 | 6.0 | 14.0 | 0.00 | 0.00 | 0.00 | 47 | 1001.6 |
| 20260503214253 | 69 | 200 | 7.0 | 19.0 | 0.00 | 0.00 | 0.00 | 48 | 1001.6 |
| 20260503213745 | 69 | 242 | 7.0 | 19.0 | 0.00 | 0.00 | 0.00 | 48 | 1001.7 |
| 20260503213246 | 69 | 233 | 7.0 | 18.0 | 0.00 | 0.00 | 0.00 | 48 | 1001.8 |
| 20260503212750 | 69 | 263 | 8.0 | 18.0 | 0.00 | 0.00 | 0.00 | 48 | 1001.7 |
| 20260503212245 | 68 | 191 | 8.0 | 17.0 | 0.00 | 0.00 | 0.00 | 48 | 1001.8 |
| 20260503211746 | 68 | 185 | 9.0 | 20.0 | 0.00 | 0.00 | 0.00 | 48 | 1001.9 |
| 20260503211246 | 68 | 230 | 8.0 | 20.0 | 0.00 | 0.00 | 0.00 | 48 | 1001.8 |
| 20260503210743 | 68 | 227 | 6.0 | 17.0 | 0.00 | 0.00 | 0.00 | 48 | 1001.9 |
| 20260503210242 | 68 | 207 | 9.0 | 21.0 | 0.00 | 0.00 | 0.00 | 48 | 1001.9 |
| 20260503205743 | 67 | 266 | 11.0 | 22.0 | 0.00 | 0.00 | 0.00 | 50 | 1002.0 |
| 20260503205513 | 67 | 201 | 10.0 | 22.0 | 0.00 | 0.00 | 0.00 | 49 | 1002.1 |
| 20260503204741 | 67 | 190 | 10.0 | 21.0 | 0.00 | 0.00 | 0.00 | 49 | 1002.1 |
| 20260503204242 | 67 | 215 | 10.0 | 22.0 | 0.00 | 0.00 | 0.00 | 49 | 1002.2 |
| 20260503203736 | 67 | 179 | 11.0 | 25.0 | 0.00 | 0.00 | 0.00 | 49 | 1002.3 |
| 20260503203234 | 67 | 195 | 10.0 | 25.0 | 0.00 | 0.00 | 0.00 | 48 | 1002.3 |
| 20260503202743 | 67 | 192 | 8.0 | 23.0 | 0.00 | 0.00 | 0.00 | 49 | 1002.4 |
| 20260503202233 | 67 | 165 | 10.0 | 22.0 | 0.00 | 0.00 | 0.00 | 49 | 1002.6 |
| 20260503201734 | 67 | 221 | 10.0 | 22.0 | 0.00 | 0.00 | 0.00 | 48 | 1002.6 |
| 20260503201234 | 67 | 201 | 11.0 | 22.0 | 0.00 | 0.00 | 0.00 | 48 | 1002.6 |
| 20260503200729 | 67 | 204 | 10.0 | 22.0 | 0.00 | 0.00 | 0.00 | 49 | 1002.7 |
| 20260503200458 | 67 | 180 | 9.0 | 19.0 | 0.00 | 0.00 | 0.00 | 49 | 1002.9 |
| 20260503195728 | 67 | 228 | 9.0 | 19.0 | 0.00 | 0.00 | 0.00 | 50 | 1003.0 |
| 20260503195228 | 67 | 196 | 8.0 | 15.0 | 0.00 | 0.00 | 0.00 | 50 | 1003.0 |
| 20260503194957 | 67 | 200 | 10.0 | 25.0 | 0.00 | 0.00 | 0.00 | 51 | 1003.0 |
| 20260503194840 | 66 | 204 | 11.0 | 25.0 | 0.00 | 0.00 | 0.00 | 50 | 1003.1 |
| 20260503193727 | 66 | 215 | 11.0 | 23.0 | 0.00 | 0.00 | 0.00 | 50 | 1003.2 |
| 20260503193221 | 66 | 219 | 11.0 | 23.0 | 0.00 | 0.00 | 0.00 | 50 | 1003.2 |
| 20260503192955 | 66 | 182 | 10.0 | 26.0 | 0.00 | 0.00 | 0.00 | 52 | 1003.3 |
| 20260503192222 | 66 | 198 | 11.0 | 26.0 | 0.00 | 0.00 | 0.00 | 51 | 1003.5 |
| 20260503191723 | 66 | 213 | 10.0 | 23.0 | 0.00 | 0.00 | 0.00 | 51 | 1003.5 |
| 20260503191225 | 66 | 232 | 10.0 | 23.0 | 0.00 | 0.00 | 0.00 | 52 | 1003.6 |
| 20260503190716 | 66 | 236 | 11.0 | 28.0 | 0.00 | 0.00 | 0.00 | 51 | 1003.6 |
| 20260503190215 | 65 | 198 | 12.0 | 28.0 | 0.00 | 0.00 | 0.00 | 52 | 1003.7 |
| 20260503185715 | 66 | 236 | 11.0 | 22.0 | 0.00 | 0.00 | 0.00 | 51 | 1003.8 |
| 20260503185215 | 65 | 180 | 9.0 | 21.0 | 0.00 | 0.00 | 0.00 | 53 | 1003.8 |
| 20260503184946 | 65 | 187 | 11.0 | 27.0 | 0.00 | 0.00 | 0.00 | 52 | 1003.7 |
| 20260503184448 | 65 | 232 | 11.0 | 27.0 | 0.00 | 0.00 | 0.00 | 52 | 1003.8 |
| 20260503183714 | 65 | 198 | 10.0 | 22.0 | 0.00 | 0.00 | 0.00 | 55 | 1003.8 |
| 20260503183213 | 65 | 212 | 10.0 | 23.0 | 0.00 | 0.00 | 0.00 | 54 | 1004.0 |
| 20260503182714 | 65 | 228 | 11.0 | 24.0 | 0.00 | 0.00 | 0.00 | 55 | 1004.1 |
| 20260503182213 | 64 | 193 | 11.0 | 24.0 | 0.00 | 0.00 | 0.00 | 58 | 1004.4 |
| 20260503181947 | 64 | 271 | 10.0 | 23.0 | 0.00 | 0.00 | 0.00 | 57 | 1004.4 |
| 20260503181445 | 64 | 215 | 11.0 | 24.0 | 0.00 | 0.00 | 0.00 | 58 | 1004.5 |
| 20260503180715 | 63 | 209 | 11.0 | 24.0 | 0.00 | 0.00 | 0.00 | 57 | 1004.6 |
| 20260503180208 | 64 | 227 | 12.0 | 26.0 | 0.00 | 0.00 | 0.00 | 56 | 1004.6 |
| 20260503175707 | 63 | 194 | 12.0 | 28.0 | 0.00 | 0.00 | 0.00 | 59 | 1004.7 |
| 20260503175212 | 63 | 213 | 10.0 | 28.0 | 0.00 | 0.00 | 0.00 | 60 | 1004.7 |
| 20260503174708 | 63 | 225 | 11.0 | 28.0 | 0.00 | 0.00 | 0.00 | 59 | 1004.9 |
| 20260503174207 | 63 | 196 | 13.0 | 28.0 | 0.00 | 0.00 | 0.00 | 59 | 1005.0 |
| 20260503173713 | 62 | 211 | 13.0 | 25.0 | 0.00 | 0.00 | 0.00 | 60 | 1005.1 |
| 20260503173205 | 62 | 223 | 11.0 | 25.0 | 0.00 | 0.00 | 0.00 | 60 | 1005.2 |
| 20260503172707 | 62 | 222 | 10.0 | 25.0 | 0.00 | 0.00 | 0.00 | 61 | 1005.3 |
| 20260503172208 | 61 | 219 | 12.0 | 25.0 | 0.00 | 0.00 | 0.00 | 61 | 1005.4 |
| 20260503171705 | 62 | 111 | 13.0 | 26.0 | 0.00 | 0.00 | 0.00 | 60 | 1005.5 |
| 20260503171205 | 62 | 223 | 12.0 | 26.0 | 0.00 | 0.00 | 0.00 | 59 | 1005.5 |
| 20260503170705 | 62 | 224 | 10.0 | 22.0 | 0.00 | 0.00 | 0.00 | 60 | 1005.7 |
| 20260503170206 | 62 | 183 | 11.0 | 24.0 | 0.00 | 0.00 | 0.00 | 59 | 1005.6 |
| 20260503150648 | 60 | 239 | 5.0 | 13.0 | 0.00 | 0.00 | 0.00 | 57 | 1006.5 |
| 20260503150146 | 60 | 225 | 6.0 | 15.0 | 0.00 | 0.00 | 0.00 | 57 | 1006.6 |
| 20260503140144 | 56 | 209 | 7.0 | 15.0 | 0.00 | 0.00 | 0.00 | 61 | 1007.2 |
| 20260503131140 | 53 | 216 | 4.0 | 11.0 | 0.00 | 0.00 | 0.00 | 65 | 1007.5 |
| 20260503130635 | 53 | 207 | 3.0 | 10.0 | 0.00 | 0.00 | 0.00 | 66 | 1007.6 |
| 20260503130409 | 53 | 237 | 4.0 | 10.0 | 0.00 | 0.00 | 0.00 | 66 | 1007.7 |
| 20260503120127 | 51 | 196 | 3.0 | 8.0 | 0.00 | 0.00 | 0.00 | 67 | 1007.7 |
| 20260503110622 | 50 | 171 | 7.0 | 10.0 | 0.00 | 0.00 | 0.00 | 64 | 1007.9 |
| 20260503110616 | 50 | 265 | 6.0 | 10.0 | 0.00 | 0.00 | 0.00 | 63 | 1008.1 |
| 20260503100113 | 51 | 219 | 3.0 | 9.0 | 0.00 | 0.00 | 0.00 | 61 | 1008.5 |